Date,TemperatureHighF,TemperatureAvgF,TemperatureLowF,DewpointHighF,DewpointAvgF,DewpointLowF,HumidityHigh,HumidityAvg,HumidityLow,PressureMaxIn,PressureMinIn,WindSpeedMaxMPH,WindSpeedAvgMPH,GustSpeedMaxMPH,PrecipitationSumIn
2013-1-1,29.9,14.2,-6.5,26.7,11.5,-9.8,93,89,83,30.32,30.05,16,4,23,0.00
2013-1-2,30.8,25.7,18.2,27.7,22.3,14.0,91,87,83,30.40,30.04,19,13,27,0.00
2013-1-3,29.9,20.8,15.0,18.0,14.9,9.1,90,78,59,30.39,30.12,11,5,18,0.00
2013-1-4,26.0,12.1,3.8,17.5,7.8,0.7,92,83,67,30.23,30.08,5,1,7,0.00
2013-1-5,19.5,11.9,4.4,16.8,8.7,1.5,95,87,79,30.30,30.06,18,7,25,0.00
2013-1-6,29.9,19.1,11.2,23.5,15.6,8.7,93,86,74,30.31,29.86,10,5,16,0.00
2013-1-7,33.9,22.9,4.3,24.3,17.5,1.4,93,80,66,29.96,29.85,13,4,19,0.00
2013-1-8,39.5,28.9,4.4,31.2,23.2,1.4,95,80,64,30.01,29.68,24,11,35,0.02
2013-1-9,33.7,24.6,11.8,27.9,19.6,8.4,90,81,68,30.16,29.89,18,5,29,0.00
2013-1-10,37.7,31.2,25.1,31.6,27.5,22.4,92,86,76,29.89,29.53,12,4,21,0.00
2013-1-11,25.0,12.6,5.6,22.7,9.6,2.3,93,88,85,29.94,29.58,18,13,31,0.00
2013-1-12,6.3,1.9,-11.7,3.4,-3.7,-15.9,88,77,69,30.38,29.94,24,12,36,0.00
2013-1-13,7.8,-3.1,-13.6,2.6,-7.2,-17.9,89,82,77,30.45,30.34,12,4,16,0.00
2013-1-14,14.1,0.3,-14.8,6.9,-4.1,-19.1,88,82,65,30.45,30.22,8,2,12,0.00
2013-1-15,39.2,26.3,7.0,34.4,22.0,2.3,94,84,74,30.22,29.74,24,9,35,0.01
2013-1-16,39.0,29.6,21.5,34.4,25.6,17.2,91,85,79,30.24,29.76,20,8,32,0.00
2013-1-17,31.3,25.8,21.4,27.7,22.1,17.2,92,86,78,30.46,29.94,13,6,20,0.00
2013-1-18,42.4,35.6,29.7,33.6,29.8,24.1,91,80,70,29.94,29.75,7,3,15,0.00
2013-1-19,38.4,14.1,0.5,31.9,7.7,-5.2,85,75,68,30.47,29.77,31,14,47,0.00
2013-1-20,5.4,-1.5,-8.6,0.8,-7.8,-15.0,85,74,61,30.71,30.45,23,13,34,0.00
2013-1-21,4.1,-2.1,-9.4,-2.0,-8.7,-15.6,77,73,67,30.63,30.47,20,10,32,0.00
2013-1-22,14.8,7.7,-2.8,10.9,3.4,-7.8,88,82,74,30.47,30.26,11,4,17,0.00
2013-1-23,12.3,2.6,-2.7,7.6,-3.0,-8.7,81,77,70,30.68,30.33,12,8,19,0.00
2013-1-24,25.4,11.6,-1.7,21.4,6.8,-6.9,89,81,77,30.65,30.08,19,10,31,0.00
2013-1-25,21.9,7.3,2.2,17.1,0.9,-5.8,83,75,65,30.39,30.17,17,8,26,0.00
2013-1-26,32.0,19.8,4.4,25.7,15.8,-0.4,90,84,73,30.22,29.98,10,5,13,0.00
2013-1-27,29.9,18.8,10.4,23.9,15.3,7.2,93,86,76,29.98,29.82,5,1,7,0.00
2013-1-28,34.9,27.0,15.0,29.2,24.1,12.9,95,89,73,29.90,29.82,6,1,10,0.00
2013-1-29,21.3,13.8,1.4,18.1,11.2,-3.3,94,89,80,30.25,29.80,20,6,28,0.00
2013-1-30,1.4,-6.0,-11.1,-3.4,-11.9,-16.8,82,75,68,30.29,30.12,15,10,25,0.00
2013-1-31,-7.2,-13.3,-18.8,-14.5,-19.1,-23.6,82,74,69,30.60,30.29,20,11,29,0.00
2013-2-1,22.2,9.2,-14.6,19.7,5.2,-18.9,91,84,78,30.44,30.15,15,7,24,0.00
2013-2-2,35.6,15.4,3.3,30.6,11.1,-1.2,97,83,77,30.30,30.04,29,11,43,0.02
2013-2-3,21.5,18.4,12.9,18.1,14.7,9.2,89,85,81,30.24,29.97,9,4,13,0.00
2013-2-4,40.0,27.1,13.3,33.6,23.0,9.9,92,85,75,30.10,29.70,15,6,22,0.00
2013-2-5,36.6,28.5,20.5,30.8,23.4,16.3,89,81,71,30.03,29.74,18,8,27,0.00
2013-2-6,36.4,25.3,18.0,29.9,22.3,16.0,94,88,76,30.19,29.79,11,6,17,0.00
2013-2-7,26.6,20.3,15.7,25.3,18.5,13.8,96,93,90,30.29,30.17,10,7,14,0.00
2013-2-8,27.0,25.0,21.0,25.5,23.3,19.5,95,93,89,30.22,30.01,14,7,20,0.00
2013-2-9,30.4,26.6,23.5,26.0,24.5,21.4,95,92,82,30.01,29.90,8,3,12,0.00
2013-2-10,29.2,22.6,15.6,28.2,20.8,13.7,96,93,87,30.08,29.87,18,8,27,0.00
2013-2-11,27.4,22.0,19.1,21.0,18.3,15.9,91,86,76,30.15,29.92,13,8,22,0.00
2013-2-12,37.1,30.6,22.5,29.9,24.2,17.3,85,77,69,29.99,29.84,14,6,23,0.00
2013-2-13,37.7,33.8,26.1,33.6,31.0,21.9,95,89,77,29.84,29.64,18,7,25,0.08
2013-2-14,33.1,24.1,16.6,29.7,19.7,11.8,89,83,76,30.37,29.83,18,10,27,0.00
2013-2-15,23.2,18.7,11.9,17.2,14.3,8.7,90,83,68,30.50,30.18,11,5,16,0.00
2013-2-16,39.2,28.8,20.9,31.5,25.4,17.3,94,87,72,30.18,29.82,8,3,11,0.01
2013-2-17,44.6,33.4,23.0,36.2,29.4,20.3,95,86,69,29.82,29.52,19,6,29,0.00
2013-2-18,22.7,11.7,-1.1,20.1,7.1,-6.0,90,81,75,30.45,29.73,21,15,33,0.00
2013-2-19,3.2,-4.4,-12.4,-4.0,-10.7,-17.0,80,74,60,30.63,30.45,12,6,17,0.00
2013-2-20,15.3,4.0,-5.8,9.0,-1.4,-10.9,84,78,68,30.57,30.29,17,12,27,0.00
2013-2-21,24.0,18.1,13.0,19.2,14.2,9.0,89,85,78,30.32,30.19,13,8,16,0.00
2013-2-22,31.4,18.9,10.1,23.3,14.4,7.0,92,83,68,30.20,29.91,8,4,12,0.00
2013-2-23,36.3,22.0,5.7,29.2,18.4,3.2,92,86,73,29.91,29.80,11,4,14,0.00
2013-2-24,33.1,27.6,14.3,31.7,23.7,11.5,96,85,76,30.15,29.90,14,6,22,0.00
2013-2-25,45.3,28.5,11.9,32.7,22.3,9.7,93,79,57,30.13,29.92,11,4,16,0.00
2013-2-26,41.4,31.2,19.9,31.0,26.0,16.8,91,81,64,30.19,29.92,14,4,21,0.00
2013-2-27,30.1,25.7,19.8,27.7,22.7,17.8,93,88,82,30.40,30.18,10,7,19,0.00
2013-2-28,30.0,24.9,21.0,25.2,21.3,17.5,91,86,79,30.41,30.34,9,4,12,0.00
2013-3-1,29.3,25.2,21.5,26.7,22.8,19.3,92,90,88,30.46,30.28,10,7,15,0.00
2013-3-2,41.7,32.1,23.9,34.5,28.5,21.9,94,87,74,30.27,30.02,11,4,17,0.00
2013-3-3,40.1,32.3,27.1,35.2,30.2,25.3,96,92,81,30.02,29.65,11,7,16,0.05
2013-3-4,34.4,26.1,18.3,33.2,24.1,15.3,97,92,89,30.28,29.63,21,12,32,0.05
2013-3-5,20.2,14.8,6.3,15.7,11.4,4.0,91,86,79,30.54,30.29,14,7,21,0.00
2013-3-6,21.4,13.7,5.5,16.6,10.5,2.7,92,87,79,30.54,30.22,16,9,20,0.00
2013-3-7,31.0,22.3,14.9,26.3,19.3,11.7,94,88,81,30.26,30.13,14,7,22,0.00
2013-3-8,30.6,20.9,10.4,22.5,17.5,8.2,95,87,69,30.31,30.13,7,3,10,0.01
2013-3-9,32.1,23.5,13.5,28.4,20.0,10.0,92,86,78,30.31,30.01,19,8,26,0.00
2013-3-10,26.2,16.8,8.4,17.7,12.1,5.2,88,82,68,30.45,30.17,12,5,17,0.00
2013-3-11,19.8,18.8,17.9,16.6,15.5,14.3,88,87,85,30.17,30.02,9,6,14,0.00
2013-3-13,47.7,40.2,35.3,36.0,33.0,30.8,88,76,57,30.06,30.00,6,2,9,0.00
2013-3-14,53.7,37.6,26.2,42.6,32.9,22.2,96,84,64,30.16,30.03,12,5,19,0.00
2013-3-15,26.2,15.3,3.1,22.9,11.6,-0.5,89,85,82,30.31,30.01,15,9,22,0.00
2013-3-16,14.4,6.2,-2.6,8.6,1.7,-6.0,87,82,75,30.40,30.31,11,4,16,0.00
2013-3-17,23.8,17.5,9.9,22.0,14.2,5.0,93,86,80,30.31,29.63,23,13,35,0.00
2013-3-18,18.7,10.0,1.2,15.5,4.3,-2.4,89,77,64,30.16,29.68,28,15,40,0.00
2013-3-19,15.4,9.8,-0.7,8.9,4.9,-4.1,89,81,72,30.58,30.15,20,8,27,0.00
2013-3-20,25.2,11.1,-3.1,15.4,5.0,-6.3,88,77,60,30.58,30.22,13,6,19,0.00
2013-3-21,27.1,14.7,4.1,16.8,7.5,-1.0,83,73,50,30.22,30.06,17,12,22,0.00
2013-3-22,24.0,18.4,14.1,19.9,14.2,9.2,89,83,74,30.22,30.10,11,7,17,0.00
2013-3-23,21.6,18.7,15.5,17.6,15.1,11.9,92,85,78,30.35,30.22,13,6,17,0.00
2013-3-24,23.9,18.3,7.8,18.8,14.5,4.2,92,85,73,30.47,30.31,12,7,18,0.00
2013-3-25,23.9,12.7,2.1,18.2,9.1,-0.9,91,85,74,30.55,30.46,8,4,11,0.00
2013-3-26,32.4,18.4,6.6,27.2,14.6,4.0,91,85,73,30.46,30.28,14,6,19,0.00
2013-3-27,40.2,24.1,10.4,33.2,20.3,8.0,93,85,72,30.32,30.23,11,5,16,0.00
2013-3-28,40.4,26.6,14.9,35.4,24.3,13.0,96,91,80,30.29,30.24,7,3,12,0.00
2013-3-29,47.7,30.3,19.2,40.0,28.0,17.5,96,92,72,30.29,30.06,9,2,16,0.00
2013-3-30,47.6,35.7,27.2,38.0,31.5,26.1,97,85,63,30.11,30.05,17,6,25,0.00
2013-3-31,32.5,26.8,19.4,26.7,20.2,13.2,87,76,55,30.36,30.08,15,8,26,0.00
2013-4-1,31.7,21.9,13.0,17.2,13.8,10.4,91,73,42,30.42,30.35,6,2,12,0.00
2013-4-2,41.7,28.0,16.0,25.4,19.3,12.9,93,72,46,30.40,30.21,15,6,20,0.00
2013-4-3,57.7,39.0,27.5,37.0,29.6,23.0,88,70,41,30.21,29.91,21,10,33,0.00
2013-4-4,38.4,32.1,26.1,27.6,24.5,21.8,89,74,55,30.32,30.20,10,6,16,0.00
2013-4-5,49.1,34.2,24.6,30.4,24.9,19.6,91,71,41,30.24,29.74,18,12,25,0.00
2013-4-6,38.7,32.9,25.7,34.0,29.7,24.1,96,88,78,29.93,29.70,15,5,22,0.00
2013-4-7,50.7,37.6,31.5,39.8,33.0,29.0,95,84,65,29.94,29.70,18,6,23,0.00
2013-4-8,33.7,23.2,12.5,32.6,20.4,8.2,96,89,77,30.48,29.78,17,10,28,0.00
2013-4-9,30.2,19.9,9.8,21.1,14.3,6.2,89,79,66,30.60,30.46,12,7,18,0.00
2013-4-10,39.9,27.8,20.1,24.5,20.2,17.8,92,74,46,30.53,30.14,9,5,15,0.00
2013-4-11,37.2,30.7,26.7,27.0,23.3,19.9,91,74,59,30.14,29.94,12,5,18,0.00
2013-4-12,35.2,29.3,25.1,29.3,25.9,22.6,93,87,73,30.04,30.00,8,4,15,0.01
2013-4-13,40.6,34.4,29.6,33.2,29.1,25.7,93,81,67,30.02,29.77,20,14,29,0.00
2013-4-14,30.2,27.4,25.6,27.9,25.0,22.6,96,91,82,29.83,29.72,21,16,32,0.00
2013-4-15,33.2,30.1,26.7,29.6,27.1,24.5,95,89,82,30.16,29.79,18,12,26,0.01
2013-4-16,35.9,27.7,19.4,30.2,24.7,17.7,95,89,76,30.47,30.15,7,4,11,0.01
2013-4-17,37.2,27.6,22.3,31.1,23.9,20.6,94,86,74,30.48,30.32,12,4,20,0.00
2013-4-18,36.9,27.0,15.2,26.4,20.3,12.0,89,77,56,30.33,30.11,15,7,20,0.00
2013-4-19,37.3,29.3,18.9,23.2,20.0,15.0,91,70,47,30.16,30.07,11,4,15,0.00
2013-4-20,34.6,28.7,19.7,30.6,23.3,15.9,92,80,60,30.18,30.03,21,11,28,0.00
2013-4-21,38.8,34.3,28.9,33.6,29.7,23.6,96,83,68,30.32,29.95,21,12,29,0.18
2013-4-22,33.3,28.6,20.3,23.8,20.6,17.1,90,72,54,30.49,30.31,14,8,23,0.00
2013-4-23,48.2,32.8,17.2,32.7,23.5,14.4,94,72,41,30.47,30.07,15,5,23,0.00
2013-4-24,38.2,32.8,24.1,32.7,25.7,17.3,97,77,47,30.15,29.98,24,10,36,0.04
2013-4-25,63.0,41.9,20.1,41.4,30.0,17.0,92,66,35,30.13,29.80,18,6,26,0.00
2013-4-26,75.5,53.0,28.6,41.6,32.6,26.6,95,56,18,30.05,29.92,9,3,17,0.00
2013-4-27,77.0,59.8,40.0,41.6,36.9,33.4,79,47,22,29.96,29.63,15,5,23,0.00
2013-4-28,62.4,54.6,34.6,41.6,32.6,20.1,77,45,24,29.90,29.59,18,9,27,0.00
2013-4-29,68.2,49.5,27.9,43.9,31.8,21.6,80,54,31,29.88,29.39,21,7,31,0.00
2013-4-30,53.4,41.7,29.6,40.7,29.9,21.5,75,63,52,30.21,29.44,28,15,41,0.00
2013-5-1,50.4,36.2,24.2,24.4,21.5,11.7,85,59,22,30.69,30.21,15,8,24,0.00
2013-5-2,53.2,37.4,17.5,27.7,21.8,15.1,93,59,29,30.77,30.52,10,3,16,0.00
2013-5-3,58.2,41.7,23.4,28.3,23.2,17.8,87,53,24,30.53,30.27,11,5,20,0.00
2013-5-4,58.9,42.6,21.9,33.1,24.9,17.4,91,55,22,30.40,30.29,10,4,22,0.00
2013-5-5,66.0,46.7,23.3,33.7,28.0,20.5,91,54,25,30.33,30.12,9,3,24,0.00
2013-5-6,71.3,53.1,28.2,37.6,31.4,23.9,87,50,21,30.15,29.97,9,2,16,0.00
2013-5-7,77.2,57.5,31.3,41.0,35.9,25.0,89,50,24,30.00,29.81,10,3,18,0.00
2013-5-8,64.6,52.3,37.0,41.7,36.4,25.5,90,57,31,30.23,29.86,16,8,24,0.00
2013-5-9,62.9,48.0,33.0,29.2,25.1,18.6,75,45,18,30.32,30.17,12,6,22,0.00
2013-5-10,69.5,50.6,28.6,41.0,29.7,21.8,86,49,25,30.28,30.01,23,10,35,0.00
2013-5-11,55.7,43.2,30.6,30.4,23.1,14.2,80,49,20,30.45,30.25,9,5,21,0.00
2013-5-12,75.0,51.9,21.7,33.3,23.9,15.5,84,40,17,30.28,29.83,11,5,21,0.00
2013-5-13,89.0,72.9,53.4,46.9,40.3,32.0,53,33,18,29.83,29.50,21,10,32,0.00
2013-5-14,71.0,63.7,55.5,57.9,49.5,40.5,92,64,35,29.66,29.42,29,12,44,0.02
2013-5-15,75.5,62.0,45.3,44.4,38.9,34.9,78,47,23,29.87,29.79,14,6,32,0.00
2013-5-16,56.6,52.6,45.3,53.0,48.6,34.2,96,86,60,29.92,29.84,14,3,22,0.60
2013-5-17,73.7,60.0,50.1,61.1,54.4,48.3,100,83,61,29.90,29.74,12,4,18,0.15
2013-5-18,72.1,62.8,53.3,61.5,57.5,51.6,96,84,65,29.78,29.68,15,5,22,0.02
2013-5-19,60.1,53.7,52.1,57.5,52.9,51.0,100,97,91,29.76,29.58,21,14,34,1.09
2013-5-20,52.8,51.6,47.7,52.3,50.5,45.6,100,96,88,29.82,29.60,22,15,37,0.45
2013-5-21,53.2,48.0,44.1,48.9,45.0,41.9,95,89,83,30.00,29.82,19,11,33,0.07
2013-5-22,70.3,57.6,45.3,47.6,42.5,31.3,94,63,28,30.15,30.00,19,9,28,0.00
2013-5-23,70.0,58.6,43.9,48.6,44.5,36.9,89,62,31,30.25,30.08,19,12,28,0.00
2013-5-24,64.1,56.2,50.2,54.3,47.4,39.1,91,73,59,30.11,29.92,22,13,31,0.00
2013-5-25,71.0,56.8,45.7,61.2,53.3,44.8,100,89,63,30.05,29.84,27,6,40,0.54
2013-5-26,71.7,61.3,54.0,63.0,57.1,52.3,95,87,70,29.98,29.82,18,8,26,0.00
2013-5-27,61.0,57.1,53.4,57.6,55.3,52.1,97,94,86,29.88,29.63,23,6,34,0.19
2013-5-28,73.0,62.3,53.0,58.5,55.2,51.4,97,80,53,29.64,29.58,11,5,16,0.00
2013-5-29,75.8,62.5,47.4,60.7,55.1,46.6,100,79,54,29.66,29.49,17,7,25,0.00
2013-5-30,67.3,60.4,55.1,64.5,58.9,54.8,100,95,86,29.55,29.26,18,14,29,1.33
2013-5-31,63.5,54.7,48.4,62.0,53.1,46.5,97,94,90,29.86,29.30,17,12,28,0.39
2013-6-1,63.4,53.8,45.8,47.7,44.9,40.0,93,74,44,30.11,29.86,14,9,23,0.00
2013-6-2,66.8,53.9,36.6,48.1,42.8,35.8,100,70,38,30.13,29.97,9,4,17,0.00
2013-6-3,51.2,49.6,47.1,48.0,45.4,40.8,94,85,71,29.99,29.83,21,14,30,0.85
2013-6-4,52.1,49.9,48.2,49.9,48.3,47.1,97,94,89,30.07,29.85,11,8,20,0.54
2013-6-5,61.7,54.4,47.6,53.5,49.5,45.8,97,84,69,30.15,30.07,11,6,17,0.00
2013-6-6,71.0,56.5,38.1,56.7,46.8,38.1,100,74,39,30.10,29.98,8,2,14,0.00
2013-6-7,77.0,63.9,49.3,59.7,52.3,46.5,92,69,40,29.99,29.66,11,3,16,0.00
2013-6-8,64.3,59.2,57.2,62.1,57.8,55.0,100,95,73,29.81,29.63,12,6,16,1.38
2013-6-9,75.0,62.5,47.4,60.1,53.7,47.1,100,77,44,29.88,29.69,7,3,13,0.01
2013-6-10,77.1,66.0,51.9,61.9,54.8,49.4,97,70,40,29.83,29.69,11,4,20,0.00
2013-6-11,80.3,66.9,51.0,59.9,52.0,45.9,95,64,31,29.89,29.83,10,3,16,0.00
2013-6-12,73.2,64.2,58.8,60.8,56.6,54.2,91,77,55,30.07,29.88,8,4,18,0.05
2013-6-13,78.5,66.5,50.4,58.1,54.3,49.3,97,68,44,30.11,29.83,19,9,28,0.00
2013-6-14,77.7,67.6,55.2,64.6,56.8,46.4,90,70,40,29.86,29.65,16,7,24,0.01
2013-6-15,76.6,64.2,49.3,52.0,48.8,45.6,93,61,36,29.89,29.82,16,7,26,0.00
2013-6-16,75.8,65.0,49.6,54.1,50.6,46.3,92,62,39,29.94,29.85,21,9,30,0.00
2013-6-17,65.8,58.7,52.1,57.7,54.3,49.8,96,86,72,30.07,29.94,9,5,19,0.06
2013-6-18,79.9,63.2,44.4,60.3,53.8,44.3,100,75,43,30.09,29.87,9,3,16,0.01
2013-6-19,88.0,73.1,56.4,66.2,59.2,53.2,91,65,38,29.88,29.68,20,10,29,0.00
2013-6-20,77.7,70.3,64.5,69.8,64.1,55.8,97,81,61,29.81,29.57,23,12,32,0.29
2013-6-21,72.7,65.3,59.6,68.3,63.5,59.6,100,94,83,29.96,29.81,13,4,20,0.50
2013-6-22,76.1,66.3,54.5,67.0,61.7,54.4,100,86,66,29.89,29.69,10,4,18,0.58
2013-6-23,75.3,64.5,57.5,60.2,56.9,51.6,97,78,48,29.71,29.57,18,8,27,0.14
2013-6-24,85.7,71.0,51.7,70.2,61.3,49.6,93,73,45,29.75,29.58,12,4,18,0.00
2013-6-25,84.8,73.7,63.9,73.8,67.0,60.9,96,81,64,29.61,29.50,13,6,20,0.00
2013-6-26,83.4,71.9,55.1,65.8,59.5,53.6,96,67,43,29.83,29.60,13,6,21,0.00
2013-6-27,81.7,72.6,55.8,59.3,55.3,51.6,87,57,37,29.98,29.83,17,8,28,0.00
2013-6-28,81.4,70.1,55.1,63.3,57.3,52.3,95,67,42,30.06,29.97,14,6,22,0.00
2013-6-29,77.0,68.1,56.1,62.5,58.2,52.9,89,72,51,30.06,30.01,10,5,15,0.00
2013-6-30,80.0,70.3,58.6,60.3,56.0,51.7,92,63,38,30.16,30.06,9,3,15,0.00
2013-7-1,81.2,68.4,53.6,62.4,56.3,51.3,96,69,37,30.23,30.12,10,2,16,0.00
2013-7-2,83.0,68.8,49.3,64.7,56.5,48.3,97,69,35,30.15,29.99,9,2,17,0.00
2013-7-3,86.3,69.5,50.9,64.9,57.8,49.8,97,70,36,29.99,29.70,15,5,23,0.00
2013-7-4,83.6,71.5,59.5,70.4,60.1,53.0,95,70,35,29.73,29.64,13,4,20,0.27
2013-7-5,83.8,70.5,55.7,70.8,63.2,54.6,97,80,56,29.78,29.64,16,4,32,0.37
2013-7-6,84.2,71.7,61.6,73.4,65.4,59.9,100,82,56,29.80,29.68,8,2,14,0.00
2013-7-7,78.3,67.5,58.4,64.2,60.2,56.1,94,79,50,29.95,29.81,9,2,13,0.02
2013-7-8,87.3,71.1,57.4,72.1,63.6,56.0,97,79,49,29.96,29.76,27,4,51,0.34
2013-7-9,73.9,65.6,53.2,65.3,60.1,51.4,100,84,61,30.08,29.69,11,4,18,0.03
2013-7-10,82.5,65.0,47.9,65.3,57.7,47.5,100,80,49,30.10,29.92,5,1,13,0.00
2013-7-11,88.7,73.2,58.7,76.6,66.1,56.8,95,80,56,29.94,29.56,13,6,27,0.13
2013-7-12,86.5,75.6,66.9,74.5,68.8,64.4,95,81,52,29.80,29.54,9,2,17,0.04
2013-7-13,86.5,73.6,61.3,73.0,66.2,58.1,100,79,54,29.95,29.75,25,5,44,0.35
2013-7-14,70.5,65.0,59.9,65.3,59.8,56.8,95,84,70,30.18,29.96,12,6,20,0.00
2013-7-15,81.5,69.9,57.5,74.3,66.2,56.0,97,88,78,30.16,29.84,11,5,16,0.00
2013-7-16,78.8,72.1,63.8,67.8,64.5,60.1,94,78,64,30.15,29.86,12,6,21,0.00
2013-7-17,86.1,72.0,62.2,73.4,64.9,59.8,94,79,64,30.15,29.92,16,6,26,0.00
2013-7-18,85.5,73.5,63.8,73.2,65.6,57.5,100,78,49,29.92,29.74,14,5,22,0.00
2013-7-19,83.7,69.1,52.5,64.1,59.0,51.3,97,73,45,29.93,29.81,16,4,29,0.00
2013-7-20,72.9,63.4,55.5,63.1,58.6,53.8,97,85,66,29.98,29.88,11,4,20,0.19
2013-7-21,83.8,67.2,53.6,71.2,61.3,52.1,96,82,59,29.91,29.55,12,5,29,0.11
2013-7-22,71.0,63.8,56.5,60.9,57.4,53.9,94,81,61,29.95,29.71,9,5,16,0.00
2013-7-23,75.3,64.1,54.5,64.4,58.5,53.1,97,83,56,30.05,29.93,4,1,10,0.02
2013-7-24,80.4,67.3,51.0,65.8,60.1,50.2,100,80,51,30.04,29.93,9,2,15,0.00
2013-7-25,70.4,63.6,55.3,61.8,55.3,49.2,100,76,54,30.14,29.92,16,7,25,0.00
2013-7-26,68.8,59.2,48.8,54.3,49.5,44.5,94,73,44,30.29,30.14,9,4,17,0.00
2013-7-27,70.9,56.7,35.7,52.8,46.8,34.3,97,73,43,30.26,30.05,7,2,15,0.00
2013-7-28,74.2,59.2,42.1,55.6,49.3,40.1,95,72,46,30.06,29.91,9,4,17,0.00
2013-7-29,72.2,62.0,53.2,65.9,56.6,48.8,97,83,73,29.98,29.83,10,2,18,0.11
2013-7-30,75.4,60.8,47.7,65.2,56.9,47.3,100,88,58,30.12,29.98,5,1,9,0.01
2013-7-31,77.0,62.6,44.2,59.6,52.4,43.3,100,74,42,30.16,30.00,7,2,16,0.00
2013-8-1,78.3,63.1,43.9,60.6,52.9,43.1,100,73,42,30.06,29.92,7,2,13,0.00
2013-8-2,75.5,62.7,45.9,60.0,53.2,44.6,97,74,43,30.08,29.95,6,2,12,0.00
2013-8-3,75.7,65.4,57.1,61.5,56.4,51.3,89,73,58,30.18,30.08,9,5,16,0.01
2013-8-4,77.7,64.9,56.3,66.3,59.6,53.4,96,83,66,30.14,29.86,9,3,15,0.01
2013-8-5,82.0,66.8,52.7,65.7,58.6,51.9,100,78,45,29.93,29.72,10,2,18,0.34
2013-8-6,73.0,63.3,52.3,65.7,60.0,51.9,100,90,70,29.90,29.67,14,3,24,0.23
2013-8-7,72.3,62.8,55.7,60.7,56.3,51.3,100,81,51,30.03,29.90,9,3,16,0.13
2013-8-8,73.0,61.4,45.0,56.5,52.6,43.9,97,75,51,30.10,30.02,7,2,14,0.00
2013-8-9,71.8,60.6,46.3,56.1,52.4,45.3,100,76,52,30.18,30.10,9,4,18,0.00
2013-8-10,78.4,59.7,41.5,61.8,53.6,40.6,100,83,51,30.19,30.02,7,2,12,0.36
2013-8-11,75.1,64.2,55.1,61.4,56.6,52.9,100,79,48,30.12,30.04,5,2,12,0.00
2013-8-12,78.0,63.9,46.1,59.8,52.1,45.1,100,70,38,30.14,30.07,7,2,21,0.00
2013-8-13,79.1,64.4,48.9,60.5,54.4,47.4,97,73,44,30.19,30.08,8,3,15,0.00
2013-8-14,79.4,65.9,57.1,65.5,56.5,50.1,89,72,50,30.12,29.95,8,2,16,0.00
2013-8-15,81.9,67.1,58.0,68.7,60.5,54.3,100,82,50,30.02,29.95,9,3,16,1.11
2013-8-16,83.0,68.4,55.2,65.7,59.5,53.8,96,76,48,30.02,29.91,9,4,16,0.00
2013-8-17,85.8,71.0,55.3,72.3,64.1,54.2,97,80,55,29.93,29.75,9,4,15,0.00
2013-8-18,85.0,72.1,57.3,72.5,64.5,55.2,100,79,48,29.87,29.76,11,3,17,0.00
2013-8-19,95.0,72.9,52.9,73.4,61.4,52.1,100,73,32,29.85,29.66,8,2,14,0.00
2013-8-20,91.7,73.4,53.8,72.2,60.5,52.9,100,69,32,29.79,29.66,8,3,15,0.00
2013-8-21,79.8,68.9,53.1,64.7,54.2,46.0,96,63,37,30.08,29.79,13,6,20,0.00
2013-8-22,82.8,70.5,56.5,57.8,52.7,46.4,91,56,34,30.17,29.99,7,3,13,0.00
2013-8-23,88.5,72.8,58.2,72.1,63.0,52.2,85,72,51,30.00,29.68,12,6,20,0.00
2013-8-24,90.3,75.5,66.3,72.7,68.1,64.7,97,80,44,29.75,29.63,7,1,14,0.32
2013-8-25,89.6,73.5,57.9,72.0,64.5,57.5,100,77,46,29.88,29.75,7,1,12,0.00
2013-8-26,85.0,72.0,61.3,75.1,66.3,59.4,96,83,63,29.87,29.76,14,3,22,0.02
2013-8-27,80.7,70.2,59.9,73.1,66.4,59.1,100,88,72,29.91,29.79,9,1,17,0.00
2013-8-28,91.8,75.1,60.2,73.3,66.8,59.3,100,78,47,29.93,29.80,6,1,12,0.00
2013-8-29,84.0,73.0,61.7,71.8,67.5,61.4,100,84,57,29.92,29.74,18,3,37,0.37
2013-8-30,91.3,71.9,57.2,73.0,65.4,57.0,100,83,45,29.96,29.72,12,2,25,0.43
2013-8-31,77.5,69.1,62.0,66.4,59.5,53.1,96,74,44,29.92,29.72,16,6,26,0.05
2013-9-1,72.2,62.1,53.0,59.6,56.0,51.0,97,82,57,30.07,29.92,6,2,11,0.00
2013-9-2,84.7,64.6,46.9,65.6,55.8,45.8,97,76,47,30.08,29.88,8,2,14,0.00
2013-9-3,89.9,70.3,56.0,67.7,60.8,54.3,96,76,35,29.96,29.88,5,1,11,0.00
2013-9-4,81.5,68.7,55.8,63.0,56.9,51.0,91,68,44,30.12,29.96,8,4,16,0.00
2013-9-5,90.7,73.1,58.4,68.4,61.4,53.4,89,69,45,30.10,29.85,7,2,13,0.06
2013-9-6,92.2,75.6,59.8,70.7,65.7,58.8,97,75,43,29.90,29.79,6,2,12,0.00
2013-9-7,77.5,67.8,63.2,67.7,61.9,57.3,97,83,52,30.05,29.85,13,5,20,0.38
2013-9-8,81.2,67.5,59.3,70.1,63.7,57.8,100,88,64,29.99,29.71,7,1,14,0.15
2013-9-9,77.0,68.3,56.3,67.2,63.5,54.3,100,86,60,29.79,29.62,11,4,20,1.42
2013-9-10,80.1,65.7,51.0,62.3,56.3,50.9,100,76,41,29.98,29.78,11,3,18,0.01
2013-9-11,77.0,62.5,50.1,60.8,51.1,46.0,100,72,34,30.22,29.98,7,2,13,0.00
2013-9-12,72.7,58.1,40.8,56.6,48.5,39.8,97,74,40,30.33,30.19,4,1,8,0.00
2013-9-13,84.2,63.2,45.8,59.1,51.6,44.4,97,71,37,30.19,29.81,11,4,22,0.00
2013-9-14,73.1,61.9,56.6,63.1,55.8,50.4,93,81,65,30.05,29.73,14,3,23,0.00
2013-9-15,67.0,53.7,42.6,50.8,44.5,38.6,95,74,37,30.31,30.05,10,4,17,0.00
2013-9-16,73.5,56.3,40.5,56.3,49.2,38.7,100,79,52,30.27,29.90,17,7,28,0.00
2013-9-17,82.3,66.2,53.0,66.2,58.3,51.3,94,77,55,29.90,29.59,10,6,17,0.00
2013-9-18,77.7,66.6,59.0,66.7,62.0,57.6,97,86,65,29.69,29.48,11,2,20,0.01
2013-9-19,67.0,54.6,50.0,60.7,49.6,43.2,92,83,76,30.04,29.59,15,9,28,0.01
2013-9-20,64.5,50.6,33.1,47.7,41.1,31.8,97,73,42,30.07,29.95,11,3,18,0.00
2013-9-21,73.3,53.8,35.1,49.3,43.1,34.0,97,72,41,29.98,29.69,12,4,21,0.00
2013-9-22,82.0,62.4,41.5,64.0,53.4,39.8,97,74,48,29.69,29.35,8,3,14,0.00
2013-9-23,73.5,60.5,50.0,62.2,57.2,49.2,100,90,62,29.78,29.35,13,4,22,0.21
2013-9-24,76.0,57.9,43.0,52.9,46.7,41.4,100,72,31,29.93,29.78,5,2,11,0.01
2013-9-25,78.8,65.5,50.8,57.5,52.7,45.8,83,65,42,29.79,29.50,16,8,26,0.00
2013-9-26,67.3,59.0,52.0,58.8,52.4,43.3,97,79,59,29.86,29.44,9,5,19,0.08
2013-9-27,55.7,50.6,47.7,49.0,46.0,43.0,95,85,74,29.88,29.79,13,4,21,0.19
2013-9-28,63.7,51.5,40.8,46.7,42.7,37.8,95,75,44,29.83,29.73,12,3,22,0.01
2013-9-29,76.8,55.7,37.1,50.5,44.0,35.3,96,70,31,29.79,29.50,14,4,22,0.00
2013-9-30,78.4,59.3,39.8,50.8,46.1,37.3,93,66,32,29.59,29.38,21,4,34,0.01
2013-10-1,67.5,53.7,37.0,45.5,37.8,31.9,88,58,29,29.91,29.59,14,7,23,0.00
2013-10-2,66.0,51.2,36.4,49.7,39.1,31.0,91,68,32,30.02,29.90,10,2,16,0.00
2013-10-3,57.7,50.9,39.2,42.5,39.7,34.8,90,66,51,30.23,30.01,12,6,19,0.00
2013-10-4,45.5,40.5,38.2,40.5,35.6,32.2,91,83,76,30.35,30.21,18,12,30,0.12
2013-10-5,49.2,40.1,30.2,38.6,33.6,27.8,91,78,56,30.23,30.07,17,11,29,0.01
2013-10-6,69.6,45.1,23.8,43.7,33.9,22.3,95,71,28,30.11,29.93,10,2,19,0.00
2013-10-7,70.6,49.9,31.8,47.9,40.3,30.3,100,74,38,29.98,29.65,12,4,20,0.00
2013-10-8,70.8,50.5,34.5,47.4,38.4,33.1,100,70,27,29.86,29.56,11,2,18,0.00
2013-10-9,66.2,49.7,31.7,45.7,37.7,30.1,96,68,32,30.06,29.86,6,1,10,0.00
2013-10-10,69.2,52.5,34.1,51.9,44.1,31.9,96,75,45,30.01,29.62,7,1,13,0.00
2013-10-11,60.9,52.8,45.4,60.6,52.1,43.3,100,97,89,29.64,29.30,24,9,38,1.73
2013-10-12,54.8,46.3,32.6,43.3,35.4,30.5,93,67,42,30.24,29.58,23,12,39,0.08
2013-10-13,57.9,41.9,27.5,41.9,34.2,26.5,97,78,38,30.39,30.24,6,2,12,0.03
2013-10-14,45.1,43.0,37.8,43.6,41.6,37.8,100,95,91,30.31,30.11,17,12,29,0.86
2013-10-15,50.6,39.5,30.9,40.4,37.1,28.9,100,92,57,30.28,30.10,15,8,25,0.03
2013-10-16,57.7,43.5,29.3,44.5,35.8,27.3,95,76,49,30.10,29.89,13,4,22,0.00
2013-10-17,48.2,41.1,30.8,39.6,32.9,27.6,92,74,48,30.09,29.98,12,7,22,0.07
2013-10-18,47.9,40.2,30.7,40.2,35.5,28.5,97,84,56,30.06,29.83,14,5,22,0.04
2013-10-19,51.8,42.2,34.8,41.6,36.5,28.3,94,80,62,29.87,29.61,9,2,17,0.01
2013-10-20,46.2,38.7,34.2,43.8,33.9,23.8,96,83,64,30.06,29.62,15,9,25,0.05
2013-10-21,38.3,32.8,27.9,32.4,28.8,25.0,97,86,64,30.07,29.98,5,1,8,0.00
2013-10-22,37.1,33.7,31.4,33.2,31.3,29.9,96,91,80,30.20,30.01,6,2,10,0.10
2013-10-23,40.1,35.1,27.2,33.5,31.0,24.6,97,85,68,30.34,30.09,10,4,16,0.10
2013-10-24,41.7,30.1,21.3,33.8,26.3,19.8,96,87,65,30.43,30.29,7,1,13,0.00
2013-10-25,61.0,43.4,27.0,44.7,33.2,25.4,95,71,39,30.29,29.96,16,8,27,0.00
2013-10-26,48.6,38.0,30.2,31.0,28.6,26.5,87,70,45,30.29,29.89,8,4,15,0.00
2013-10-27,44.7,35.5,26.5,35.0,29.5,20.8,96,79,62,30.44,29.85,18,8,26,0.00
2013-10-28,29.4,25.6,21.6,21.2,19.4,17.6,85,77,69,30.64,30.44,16,7,25,0.00
2013-10-29,40.0,31.3,25.4,28.6,24.2,19.4,83,75,60,30.54,30.13,8,5,14,0.00
2013-10-30,43.4,35.4,27.6,35.8,31.2,24.8,94,85,72,30.14,29.71,9,4,14,0.00
2013-10-31,47.7,35.7,22.7,37.9,31.3,21.1,97,84,67,29.71,29.57,11,4,18,0.00
2013-11-1,46.5,41.0,27.0,38.4,34.7,24.6,96,79,62,30.03,29.63,18,9,33,0.02
2013-11-2,55.7,37.8,22.0,37.0,28.3,20.3,94,72,36,30.12,29.79,11,3,17,0.00
2013-11-3,50.7,43.0,32.1,38.4,33.4,28.0,86,69,59,29.79,29.54,12,4,20,0.00
2013-11-4,39.8,33.6,25.4,31.8,23.0,16.4,83,66,46,30.13,29.70,17,9,28,0.00
2013-11-5,39.2,26.5,17.1,23.7,18.8,13.2,88,74,51,30.29,30.13,9,3,16,0.00
2013-11-6,46.8,31.9,17.4,31.4,23.7,14.4,93,75,36,30.32,30.12,10,3,16,0.00
2013-11-7,45.9,31.0,14.7,29.7,22.7,11.8,94,73,46,30.33,30.04,9,3,15,0.00
2013-11-8,48.2,40.5,31.8,40.5,33.1,25.8,87,75,62,30.04,29.59,18,7,30,0.00
2013-11-9,39.7,31.9,17.0,34.4,24.8,14.7,92,75,63,30.36,29.84,19,10,32,0.00
2013-11-10,38.1,25.7,16.2,31.3,17.9,0.7,95,74,43,30.53,30.22,13,6,21,0.00
2013-11-11,23.1,13.0,3.9,7.7,1.8,-6.1,85,63,28,30.83,30.53,10,3,16,0.00
2013-11-12,51.2,27.7,7.0,34.2,20.7,2.4,91,76,51,30.82,30.16,9,4,15,0.00
2013-11-13,54.7,40.7,30.2,39.5,33.1,25.8,93,76,54,30.17,29.89,10,3,18,0.00
2013-11-14,48.1,37.6,19.8,37.6,32.4,18.1,95,82,60,29.92,29.79,13,3,22,0.00
2013-11-15,55.9,31.8,17.9,36.2,24.4,16.2,95,78,38,29.81,29.42,12,3,18,0.00
2013-11-16,42.6,32.4,22.1,35.4,28.6,19.4,96,86,73,29.46,29.35,4,1,7,0.10
2013-11-17,36.1,30.8,28.4,35.2,28.3,24.4,97,90,81,30.04,29.46,8,5,13,0.00
2013-11-18,43.1,29.1,14.9,33.9,24.9,12.9,94,85,67,30.17,29.98,12,4,18,0.00
2013-11-19,41.7,32.1,23.9,34.0,28.7,22.1,97,87,73,29.98,29.56,9,3,14,0.00
2013-11-20,29.6,18.1,9.2,26.7,14.1,4.9,89,84,78,30.52,29.73,15,10,21,0.00
2013-11-21,12.5,5.4,-1.9,6.9,1.1,-5.8,89,82,65,30.80,30.52,14,6,22,0.00
2013-11-22,18.5,8.6,-4.7,14.5,3.8,-8.3,94,81,70,31.01,30.60,10,4,18,0.00
2013-11-23,16.7,2.3,-17.7,10.1,-2.0,-22.0,88,82,74,31.04,30.50,13,4,18,0.00
2013-11-24,39.9,28.7,11.9,30.9,21.7,8.0,88,75,58,30.50,29.96,14,6,23,0.00
2013-11-25,35.3,30.0,18.4,28.5,23.7,12.9,81,77,72,30.44,30.05,21,12,31,0.00
2013-11-26,21.6,14.8,5.3,13.4,9.7,1.3,88,80,61,30.63,30.43,13,4,21,0.00
2013-11-27,32.1,23.4,11.4,25.0,18.2,7.7,87,80,70,30.44,30.04,20,12,31,0.00
2013-11-28,25.9,21.7,15.3,19.9,16.5,12.2,89,80,75,30.48,30.33,12,7,19,0.00
2013-11-29,36.7,23.9,15.5,27.9,20.1,12.6,95,86,69,30.34,30.06,9,4,13,0.00
2013-11-30,39.5,30.2,20.5,31.8,26.6,18.4,96,87,73,30.25,30.13,6,1,9,0.00
2013-12-1,37.9,28.4,18.9,33.4,26.1,16.9,95,91,83,30.24,29.74,8,2,12,0.00
2013-12-2,33.6,33.2,32.8,32.6,32.0,31.5,96,96,95,29.74,29.65,4,1,7,0.22
2013-12-3,18.9,12.6,9.2,16.2,9.5,6.3,90,87,85,30.18,29.93,14,10,24,0.00
2013-12-4,9.7,5.8,-0.6,7.1,2.3,-4.3,89,85,83,30.24,30.13,24,18,33,0.00
2013-12-5,0.4,-2.1,-5.0,-3.3,-6.4,-9.6,85,81,76,30.60,30.24,25,17,35,0.00
2013-12-6,-5.0,-6.8,-10.1,-8.8,-10.9,-14.1,84,82,80,30.81,30.60,15,9,24,0.00
2013-12-7,-8.8,-13.7,-20.6,-13.5,-18.0,-25.2,84,80,75,30.82,30.58,10,4,16,0.00
2013-12-8,-0.6,-8.0,-21.3,-5.3,-12.5,-25.7,85,80,73,30.58,30.22,20,7,30,0.00
2013-12-9,15.2,0.3,-10.6,10.5,-4.0,-14.6,88,82,76,30.32,29.84,24,11,36,0.00
2013-12-10,18.5,3.9,-6.5,14.8,-1.4,-11.6,90,78,63,30.59,30.06,19,11,28,0.00
2013-12-11,18.0,0.1,-14.3,12.6,-4.4,-18.3,87,81,76,30.62,30.30,14,5,24,0.00
2013-12-12,27.7,14.9,6.1,22.2,11.4,2.9,91,86,76,30.37,30.19,12,3,18,0.00
2013-12-13,11.2,-0.5,-3.3,7.5,-4.5,-7.8,85,83,80,30.49,30.22,15,9,21,0.00
2013-12-14,10.1,5.3,-1.1,5.1,0.8,-5.1,86,82,76,30.47,30.25,13,6,19,0.00
2013-12-15,10.6,5.7,2.0,6.8,2.0,-2.0,88,84,82,30.27,29.95,13,9,17,0.00
2013-12-16,36.3,30.2,9.2,30.2,24.6,6.0,96,80,72,30.12,29.95,22,13,33,0.02
2013-12-17,31.5,24.7,19.8,24.0,19.0,16.0,89,79,73,30.22,29.76,19,9,29,0.00
2013-12-18,39.9,26.9,5.8,30.5,21.6,1.3,91,80,67,30.18,29.66,21,8,30,0.00
2013-12-19,5.7,-0.1,-11.3,1.3,-4.3,-15.0,90,82,78,30.40,30.18,11,4,17,0.00
2013-12-20,6.1,-3.4,-13.0,1.0,-7.2,-17.0,88,83,75,30.33,29.95,7,2,10,0.00
2013-12-21,-2.1,-5.1,-9.7,-6.4,-9.0,-13.5,87,83,80,30.37,30.01,8,4,14,0.00
2013-12-22,-3.3,-8.0,-23.4,-7.2,-12.5,-28.4,86,80,75,30.74,30.35,5,2,8,0.00
2013-12-23,4.8,-15.4,-28.7,0.5,-19.7,-33.7,84,80,76,30.80,30.29,16,5,21,0.00
2013-12-24,32.9,22.3,4.9,31.0,18.7,0.5,96,86,81,30.28,30.11,17,10,25,0.00
2013-12-25,32.5,28.6,23.4,31.1,24.3,20.0,96,84,78,30.30,30.05,21,9,32,0.00
2013-12-26,33.2,26.2,17.3,28.4,23.1,15.1,95,88,78,30.14,29.99,15,4,23,0.00
2013-12-27,43.7,34.3,21.3,36.4,29.9,18.8,96,84,73,30.03,29.80,14,4,20,0.02
2013-12-28,33.7,10.8,-3.6,29.6,6.9,-10.3,95,84,70,30.65,29.71,20,10,32,0.00
2013-12-29,8.5,0.5,-8.3,5.3,-4.9,-14.0,87,77,69,30.66,30.14,12,6,17,0.00
2013-12-30,9.6,3.5,-4.7,6.8,-0.5,-9.0,88,83,76,30.42,30.10,11,5,15,0.00
2013-12-31,0.4,-5.8,-9.5,-4.2,-10.8,-15.1,83,79,73,30.50,30.33,12,7,15,0.00
2014-1-1,3.0,-3.3,-7.5,-3.4,-7.9,-12.0,83,80,71,30.62,30.47,12,4,17,0.00
2014-1-2,14.4,-4.5,-23.8,11.0,-8.2,-28.4,89,83,77,30.62,29.98,18,6,24,0.00